Time,TemperatureF,DewpointF,PressureIn,WindDirection,WindDirectionDegrees,WindSpeedMPH,WindSpeedGustMPH,Humidity,HourlyPrecipIn,Conditions,Clouds,dailyrainin,SoftwareType,DateUTC
2013-02-20 00:02:00,33.0,13.0,29.97,West,273,8.0,20.0,44,0.00,,,0.04,,2013-02-20 05:02:00,
2013-02-20 00:12:00,33.0,13.0,29.97,West,273,8.0,20.0,44,0.00,,,0.04,,2013-02-20 05:12:00,
2013-02-20 00:22:00,33.0,14.0,29.97,NNW,334,10.0,20.0,45,0.00,,,0.04,,2013-02-20 05:22:00,
2013-02-20 00:32:00,33.0,15.0,29.97,West,278,5.0,11.0,47,0.00,,,0.04,,2013-02-20 05:32:00,
2013-02-20 00:43:00,33.0,15.0,29.97,West,278,5.0,11.0,47,0.00,,,0.04,,2013-02-20 05:43:00,
2013-02-20 00:52:00,32.0,15.0,29.97,WNW,300,7.0,11.0,48,0.00,,,0.04,,2013-02-20 05:52:00,
2013-02-20 01:02:00,32.0,15.0,29.98,NW,321,6.0,13.0,50,0.00,,,0.04,,2013-02-20 06:02:00,
2013-02-20 01:11:00,32.0,15.0,29.98,NW,321,6.0,13.0,50,0.00,,,0.04,,2013-02-20 06:11:00,
2013-02-20 01:22:00,32.0,16.0,29.98,NW,312,8.0,21.0,51,0.00,,,0.04,,2013-02-20 06:22:00,
2013-02-20 01:32:00,32.0,16.0,29.98,NW,312,8.0,21.0,51,0.00,,,0.04,,2013-02-20 06:32:00,
2013-02-20 01:42:00,32.0,16.0,29.98,NW,312,8.0,21.0,51,0.00,,,0.04,,2013-02-20 06:42:00,
2013-02-20 01:52:00,31.0,15.0,29.99,NNW,342,12.0,22.0,50,0.00,,,0.04,,2013-02-20 06:52:00,
2013-02-20 02:02:00,31.0,14.0,30.00,WNW,298,7.0,21.0,48,0.00,,,0.04,,2013-02-20 07:02:00,
2013-02-20 02:11:00,31.0,14.0,30.00,WNW,298,7.0,21.0,48,0.00,,,0.04,,2013-02-20 07:11:00,
2013-02-20 02:21:00,30.0,11.0,30.00,NW,318,7.0,17.0,44,0.00,,,0.04,,2013-02-20 07:21:00,
2013-02-20 02:32:00,30.0,11.0,30.00,West,264,5.0,16.0,44,0.00,,,0.04,,2013-02-20 07:32:00,
2013-02-20 02:42:00,30.0,11.0,30.00,West,264,5.0,16.0,44,0.00,,,0.04,,2013-02-20 07:42:00,
2013-02-20 02:52:00,29.0,9.0,30.00,SSW,206,8.0,23.0,43,0.00,,,0.04,,2013-02-20 07:52:00,
2013-02-20 03:05:00,29.0,10.0,30.00,NW,313,5.0,16.0,44,0.00,,,0.04,,2013-02-20 08:05:00,
2013-02-20 03:11:00,29.0,10.0,30.00,NW,313,5.0,16.0,44,0.00,,,0.04,,2013-02-20 08:11:00,
2013-02-20 03:22:00,29.0,11.0,30.00,West,267,5.0,17.0,46,0.00,,,0.04,,2013-02-20 08:22:00,
2013-02-20 03:31:00,28.0,10.0,30.00,NW,314,12.0,19.0,47,0.00,,,0.04,,2013-02-20 08:31:00,
2013-02-20 03:42:00,28.0,10.0,30.00,NW,314,12.0,19.0,47,0.00,,,0.04,,2013-02-20 08:42:00,
2013-02-20 03:52:00,28.0,12.0,30.00,WNW,290,10.0,20.0,50,0.00,,,0.04,,2013-02-20 08:52:00,
2013-02-20 04:02:00,28.0,12.0,30.00,WSW,257,8.0,20.0,51,0.00,,,0.04,,2013-02-20 09:02:00,
2013-02-20 04:11:00,28.0,12.0,30.00,WSW,257,8.0,20.0,51,0.00,,,0.04,,2013-02-20 09:11:00,
2013-02-20 04:21:00,28.0,12.0,30.00,NNW,335,10.0,19.0,51,0.00,,,0.04,,2013-02-20 09:21:00,
2013-02-20 04:32:00,27.0,11.0,30.01,WNW,298,11.0,21.0,51,0.00,,,0.04,,2013-02-20 09:32:00,
2013-02-20 04:42:00,27.0,11.0,30.01,WNW,298,11.0,21.0,51,0.00,,,0.04,,2013-02-20 09:42:00,
2013-02-20 04:51:00,27.0,11.0,30.02,West,266,9.0,20.0,51,0.00,,,0.04,,2013-02-20 09:51:00,
2013-02-20 05:01:00,27.0,11.0,30.02,NW,324,11.0,26.0,51,0.00,,,0.04,,2013-02-20 10:01:00,
2013-02-20 05:12:00,27.0,11.0,30.02,NW,324,11.0,26.0,51,0.00,,,0.04,,2013-02-20 10:12:00,
2013-02-20 05:22:00,27.0,12.0,30.02,WNW,284,10.0,21.0,52,0.00,,,0.04,,2013-02-20 10:22:00,
2013-02-20 05:32:00,27.0,13.0,30.03,WNW,300,6.0,17.0,54,0.00,,,0.04,,2013-02-20 10:32:00,
2013-02-20 05:42:00,27.0,13.0,30.03,WNW,300,6.0,17.0,54,0.00,,,0.04,,2013-02-20 10:42:00,
2013-02-20 05:51:00,26.0,12.0,30.03,NNW,337,6.0,19.0,54,0.00,,,0.04,,2013-02-20 10:51:00,
2013-02-20 06:02:00,26.0,12.0,30.03,NNW,332,6.0,19.0,54,0.00,,,0.04,,2013-02-20 11:02:00,
2013-02-20 06:11:00,26.0,11.0,30.03,WNW,288,9.0,19.0,53,0.00,,,0.04,,2013-02-20 11:11:00,
2013-02-20 06:21:00,26.0,11.0,30.03,WNW,288,9.0,19.0,53,0.00,,,0.04,,2013-02-20 11:21:00,
2013-02-20 06:32:00,26.0,12.0,30.04,NW,324,7.0,17.0,54,0.00,,,0.04,,2013-02-20 11:32:00,
2013-02-20 06:42:00,26.0,12.0,30.04,NW,324,7.0,17.0,54,0.00,,,0.04,,2013-02-20 11:42:00,
2013-02-20 06:52:00,25.0,11.0,30.05,NNW,342,11.0,21.0,54,0.00,,,0.04,,2013-02-20 11:52:00,
2013-02-20 07:02:00,25.0,11.0,30.05,West,261,10.0,20.0,54,0.00,,,0.04,,2013-02-20 12:02:00,
2013-02-20 07:12:00,25.0,11.0,30.05,West,261,10.0,20.0,54,0.00,,,0.04,,2013-02-20 12:12:00,
2013-02-20 07:22:00,25.0,11.0,30.05,West,273,10.0,22.0,55,0.00,,,0.04,,2013-02-20 12:22:00,
2013-02-20 07:32:00,25.0,11.0,30.06,WNW,283,10.0,23.0,55,0.00,,,0.04,,2013-02-20 12:32:00,
2013-02-20 07:42:00,25.0,11.0,30.06,WNW,283,10.0,23.0,55,0.00,,,0.04,,2013-02-20 12:42:00,
2013-02-20 07:52:00,25.0,12.0,30.06,WNW,294,9.0,28.0,56,0.00,,,0.04,,2013-02-20 12:52:00,
2013-02-20 08:01:00,25.0,11.0,30.07,WNW,282,11.0,24.0,55,0.00,,,0.04,,2013-02-20 13:01:00,
2013-02-20 08:12:00,25.0,11.0,30.07,WNW,282,11.0,24.0,55,0.00,,,0.04,,2013-02-20 13:12:00,
2013-02-20 08:22:00,25.0,12.0,30.07,West,271,10.0,22.0,56,0.00,,,0.04,,2013-02-20 13:22:00,
2013-02-20 08:32:00,25.0,12.0,30.08,WSW,246,10.0,24.0,56,0.00,,,0.04,,2013-02-20 13:32:00,
2013-02-20 08:42:00,25.0,12.0,30.08,WSW,246,10.0,24.0,56,0.00,,,0.04,,2013-02-20 13:42:00,
2013-02-20 08:51:00,25.0,12.0,30.08,West,274,13.0,27.0,56,0.00,,,0.04,,2013-02-20 13:51:00,
2013-02-20 09:01:00,25.0,12.0,30.08,NW,312,8.0,19.0,56,0.00,,,0.04,,2013-02-20 14:01:00,
2013-02-20 09:11:00,25.0,12.0,30.08,NW,312,8.0,19.0,56,0.00,,,0.04,,2013-02-20 14:11:00,
2013-02-20 09:22:00,26.0,12.0,30.09,West,269,7.0,23.0,54,0.00,,,0.04,,2013-02-20 14:22:00,
2013-02-20 09:32:00,26.0,11.0,30.09,West,261,13.0,19.0,53,0.00,,,0.04,,2013-02-20 14:32:00,
2013-02-20 09:42:00,26.0,11.0,30.09,West,261,13.0,19.0,53,0.00,,,0.04,,2013-02-20 14:42:00,
2013-02-20 09:52:00,27.0,12.0,30.09,West,280,10.0,22.0,52,0.00,,,0.04,,2013-02-20 14:52:00,
2013-02-20 10:02:00,27.0,11.0,30.09,WSW,248,13.0,24.0,51,0.00,,,0.04,,2013-02-20 15:02:00,
2013-02-20 10:12:00,27.0,11.0,30.09,WSW,248,13.0,24.0,51,0.00,,,0.04,,2013-02-20 15:12:00,
2013-02-20 10:22:00,28.0,12.0,30.09,WNW,282,10.0,19.0,51,0.00,,,0.04,,2013-02-20 15:22:00,
2013-02-20 10:32:00,28.0,12.0,30.09,West,274,9.0,18.0,51,0.00,,,0.01,,2013-02-20 15:32:00,
2013-02-20 10:42:00,28.0,12.0,30.09,West,274,9.0,18.0,51,0.00,,,0.01,,2013-02-20 15:42:00,
2013-02-20 10:52:00,28.0,12.0,30.09,NW,310,9.0,23.0,50,0.00,,,0.01,,2013-02-20 15:52:00,
2013-02-20 11:01:00,28.0,12.0,30.09,NW,310,9.0,23.0,50,0.00,,,0.01,,2013-02-20 16:01:00,
2013-02-20 11:12:00,28.0,12.0,30.09,NW,310,9.0,23.0,50,0.00,,,0.01,,2013-02-20 16:12:00,
2013-02-20 11:22:00,30.0,13.0,30.09,NNW,337,8.0,16.0,49,0.00,,,0.01,,2013-02-20 16:22:00,
2013-02-20 11:32:00,30.0,12.0,30.09,NNW,348,9.0,19.0,47,0.00,,,0.01,,2013-02-20 16:32:00,
2013-02-20 11:42:00,30.0,12.0,30.09,NNW,348,9.0,19.0,47,0.00,,,0.01,,2013-02-20 16:42:00,
2013-02-20 11:52:00,30.0,11.0,30.09,WNW,303,10.0,22.0,45,0.00,,,0.01,,2013-02-20 16:52:00,
2013-02-20 12:01:00,31.0,12.0,30.09,NW,307,11.0,21.0,44,0.00,,,0.01,,2013-02-20 17:01:00,
2013-02-20 12:11:00,31.0,11.0,30.09,West,259,10.0,20.0,43,0.00,,,0.01,,2013-02-20 17:11:00,
2013-02-20 12:21:00,31.0,11.0,30.09,West,259,10.0,20.0,43,0.00,,,0.01,,2013-02-20 17:21:00,
2013-02-20 12:32:00,32.0,11.0,30.09,NNW,330,7.0,23.0,41,0.00,,,0.01,,2013-02-20 17:32:00,
2013-02-20 12:42:00,32.0,11.0,30.09,NNW,330,7.0,23.0,41,0.00,,,0.01,,2013-02-20 17:42:00,
2013-02-20 12:52:00,32.0,10.0,30.09,NW,318,11.0,18.0,40,0.00,,,0.01,,2013-02-20 17:52:00,
2013-02-20 13:02:00,33.0,11.0,30.08,NNE,19,9.0,20.0,39,0.00,,,0.01,,2013-02-20 18:02:00,
2013-02-20 13:11:00,33.0,11.0,30.08,NNE,19,9.0,20.0,39,0.00,,,0.01,,2013-02-20 18:11:00,
2013-02-20 13:22:00,34.0,12.0,30.07,North,360,6.0,22.0,39,0.00,,,0.01,,2013-02-20 18:22:00,
2013-02-20 13:32:00,35.0,11.0,30.06,West,266,8.0,19.0,37,0.00,,,0.00,,2013-02-20 18:32:00,
2013-02-20 13:42:00,35.0,11.0,30.06,West,266,8.0,19.0,37,0.00,,,0.00,,2013-02-20 18:42:00,
2013-02-20 13:52:00,36.0,10.0,30.07,WNW,290,6.0,23.0,34,0.00,,,0.00,,2013-02-20 18:52:00,
2013-02-20 14:01:00,36.0,10.0,30.06,West,265,12.0,23.0,33,0.00,,,0.00,,2013-02-20 19:01:00,
2013-02-20 14:11:00,36.0,10.0,30.06,West,265,12.0,23.0,33,0.00,,,0.00,,2013-02-20 19:11:00,
2013-02-20 14:21:00,36.0,10.0,30.06,North,360,10.0,21.0,33,0.00,,,0.00,,2013-02-20 19:21:00,
2013-02-20 14:32:00,36.0,10.0,30.06,NNW,331,11.0,27.0,33,0.00,,,0.00,,2013-02-20 19:32:00,
2013-02-20 14:41:00,36.0,10.0,30.06,NNW,331,11.0,27.0,33,0.00,,,0.00,,2013-02-20 19:41:00,
2013-02-20 14:52:00,36.0,9.0,30.06,WNW,296,11.0,18.0,32,0.00,,,0.00,,2013-02-20 19:52:00,
2013-02-20 15:01:00,37.0,11.0,30.06,SW,236,6.0,17.0,33,0.00,,,0.00,,2013-02-20 20:01:00,
2013-02-20 15:11:00,36.0,10.0,30.06,North,5,8.0,22.0,34,0.00,,,0.00,,2013-02-20 20:11:00,
2013-02-20 15:21:00,36.0,10.0,30.06,North,5,8.0,22.0,34,0.00,,,0.00,,2013-02-20 20:21:00,
2013-02-20 15:31:00,36.0,10.0,30.07,NW,304,8.0,20.0,33,0.00,,,0.00,,2013-02-20 20:31:00,
2013-02-20 15:41:00,36.0,10.0,30.07,NW,304,8.0,20.0,33,0.00,,,0.00,,2013-02-20 20:41:00,
2013-02-20 15:51:00,36.0,10.0,30.07,West,274,8.0,18.0,33,0.00,,,0.00,,2013-02-20 20:51:00,
2013-02-20 16:01:00,36.0,10.0,30.07,NNW,344,7.0,19.0,33,0.00,,,0.00,,2013-02-20 21:01:00,
2013-02-20 16:11:00,36.0,10.0,30.07,NNW,344,7.0,19.0,33,0.00,,,0.00,,2013-02-20 21:11:00,
2013-02-20 16:21:00,36.0,10.0,30.08,North,355,9.0,16.0,34,0.00,,,0.00,,2013-02-20 21:21:00,
2013-02-20 16:32:00,36.0,10.0,30.08,WSW,253,8.0,17.0,34,0.00,,,0.00,,2013-02-20 21:32:00,
2013-02-20 16:42:00,36.0,10.0,30.08,WSW,253,8.0,17.0,34,0.00,,,0.00,,2013-02-20 21:42:00,
2013-02-20 16:52:00,35.0,10.0,30.08,WNW,284,8.0,15.0,35,0.00,,,0.00,,2013-02-20 21:52:00,
2013-02-20 17:02:00,35.0,9.0,30.09,WNW,301,8.0,15.0,34,0.00,,,0.00,,2013-02-20 22:02:00,
2013-02-20 17:11:00,35.0,9.0,30.09,WNW,301,8.0,15.0,34,0.00,,,0.00,,2013-02-20 22:11:00,
2013-02-20 17:21:00,35.0,9.0,30.09,West,278,10.0,21.0,34,0.00,,,0.00,,2013-02-20 22:21:00,
2013-02-20 17:31:00,34.0,10.0,30.10,WNW,303,4.0,13.0,36,0.00,,,0.00,,2013-02-20 22:31:00,
2013-02-20 17:43:00,34.0,10.0,30.10,WNW,303,4.0,13.0,36,0.00,,,0.00,,2013-02-20 22:43:00,
2013-02-20 17:52:00,34.0,11.0,30.10,West,263,6.0,14.0,37,0.00,,,0.00,,2013-02-20 22:52:00,
2013-02-20 18:01:00,33.0,11.0,30.11,WNW,282,5.0,15.0,40,0.00,,,0.00,,2013-02-20 23:01:00,
2013-02-20 18:12:00,33.0,11.0,30.11,WNW,282,5.0,15.0,40,0.00,,,0.00,,2013-02-20 23:12:00,
2013-02-20 18:22:00,32.0,11.0,30.13,NW,304,8.0,13.0,41,0.00,,,0.00,,2013-02-20 23:22:00,
2013-02-20 18:32:00,32.0,12.0,30.14,WNW,298,8.0,12.0,43,0.00,,,0.00,,2013-02-20 23:32:00,
2013-02-20 18:42:00,32.0,12.0,30.14,WNW,298,8.0,12.0,43,0.00,,,0.00,,2013-02-20 23:42:00,
2013-02-20 18:53:00,31.0,12.0,30.14,WNW,295,4.0,9.0,44,0.00,,,0.00,,2013-02-20 23:53:00,
2013-02-20 19:03:00,31.0,12.0,30.14,NW,304,6.0,12.0,45,0.00,,,0.00,,2013-02-21 00:03:00,
2013-02-20 19:11:00,31.0,12.0,30.14,NW,304,6.0,12.0,45,0.00,,,0.00,,2013-02-21 00:11:00,
2013-02-20 19:22:00,30.0,12.0,30.15,NW,315,4.0,12.0,46,0.00,,,0.00,,2013-02-21 00:22:00,
2013-02-20 19:32:00,30.0,13.0,30.16,NNE,30,6.0,17.0,48,0.00,,,0.00,,2013-02-21 00:32:00,
2013-02-20 19:42:00,30.0,13.0,30.16,NNE,30,6.0,17.0,48,0.00,,,0.00,,2013-02-21 00:42:00,
2013-02-20 19:52:00,29.0,12.0,30.17,NNW,334,4.0,14.0,49,0.00,,,0.00,,2013-02-21 00:52:00,
2013-02-20 20:01:00,29.0,12.0,30.18,NW,314,8.0,19.0,49,0.00,,,0.00,,2013-02-21 01:01:00,
2013-02-20 20:11:00,29.0,12.0,30.18,NW,314,8.0,19.0,49,0.00,,,0.00,,2013-02-21 01:11:00,
2013-02-20 20:21:00,29.0,12.0,30.18,NW,314,8.0,19.0,49,0.00,,,0.00,,2013-02-21 01:21:00,
2013-02-20 20:32:00,29.0,13.0,30.19,WNW,301,4.0,11.0,51,0.00,,,0.00,,2013-02-21 01:32:00,
2013-02-20 20:42:00,29.0,13.0,30.19,WNW,301,4.0,11.0,51,0.00,,,0.00,,2013-02-21 01:42:00,
2013-02-20 20:52:00,28.0,12.0,30.19,West,277,4.0,9.0,51,0.00,,,0.00,,2013-02-21 01:52:00,
2013-02-20 21:02:00,28.0,13.0,30.19,WNW,303,5.0,15.0,52,0.00,,,0.00,,2013-02-21 02:02:00,
2013-02-20 21:11:00,28.0,13.0,30.19,WNW,303,5.0,15.0,52,0.00,,,0.00,,2013-02-21 02:11:00,
2013-02-20 21:22:00,28.0,13.0,30.18,West,281,6.0,12.0,53,0.00,,,0.00,,2013-02-21 02:22:00,
2013-02-20 21:32:00,28.0,14.0,30.19,NNW,327,4.0,10.0,54,0.00,,,0.00,,2013-02-21 02:32:00,
2013-02-20 21:42:00,28.0,14.0,30.19,NNW,327,4.0,10.0,54,0.00,,,0.00,,2013-02-21 02:42:00,
2013-02-20 21:52:00,28.0,14.0,30.19,NNW,327,4.0,10.0,54,0.00,,,0.00,,2013-02-21 02:52:00,
2013-02-20 22:02:00,28.0,14.0,30.19,NW,325,7.0,13.0,55,0.00,,,0.00,,2013-02-21 03:02:00,
2013-02-20 22:12:00,28.0,14.0,30.19,NW,325,7.0,13.0,55,0.00,,,0.00,,2013-02-21 03:12:00,
2013-02-20 22:21:00,28.0,14.0,30.20,NW,313,4.0,11.0,55,0.00,,,0.00,,2013-02-21 03:21:00,
2013-02-20 22:32:00,27.0,13.0,30.20,NW,326,5.0,11.0,55,0.00,,,0.00,,2013-02-21 03:32:00,
2013-02-20 22:42:00,27.0,13.0,30.20,NW,326,5.0,11.0,55,0.00,,,0.00,,2013-02-21 03:42:00,
2013-02-20 22:52:00,27.0,13.0,30.18,NW,308,4.0,7.0,55,0.00,,,0.00,,2013-02-21 03:52:00,
2013-02-20 23:01:00,27.0,13.0,30.19,NW,311,2.0,12.0,56,0.00,,,0.00,,2013-02-21 04:01:00,
2013-02-20 23:11:00,27.0,13.0,30.19,NW,311,2.0,12.0,56,0.00,,,0.00,,2013-02-21 04:11:00,
2013-02-20 23:22:00,27.0,13.0,30.19,NW,311,2.0,12.0,56,0.00,,,0.00,,2013-02-21 04:22:00,
2013-02-20 23:32:00,27.0,13.0,30.19,WNW,296,6.0,11.0,56,0.00,,,0.00,,2013-02-21 04:32:00,
2013-02-20 23:42:00,27.0,13.0,30.19,WNW,296,6.0,11.0,56,0.00,,,0.00,,2013-02-21 04:42:00,
2013-02-20 23:52:00,27.0,14.0,30.18,NW,319,7.0,11.0,57,0.00,,,0.00,,2013-02-21 04:52:00,